Flight Information

DEPARTURE
YAKIMA, WA
Elevation:
1098
Runways:
9/27 - 7604x150 - ASPH-E
4/22 - 3835x150 - ASPH-P
ATIS:
125.25
Clearance Delivery:
121.9
Ground:
121.9
Tower:
YAKIMA TOW ER 133.25
DESTINATION
,
Elevation:
TPA:
1000 (est.)


6626.7 NM67° True-19° Var47° HDG

Flight Plan:
(click to file on line)

1. Type
2. Aircraft Identification
3. Aircraft Type / Special Equipment
4. True Airspeed
kts
5. Departure Airport
(ICAO code)
6. Arriving Airport
(ICAO code)
7. Cruising Altitude
ft
8. Alternate Airport
(ICAO code)
9. Route of Flight
10. Remarks


00:00:00 Departure ATIS: Destination ATIS:

Clearance Limit:
Route:
Altitude: Expect in minutes
Frequency:
Transponder: (7500 Hijack / 7600 Lost Comms / 7700 Emergency)


KYKM 261353Z AUTO 26009KT 10SM CLR 16/06 A3017 RMK AO2 SLP210 T01610061
Time: 2022-06-26T13:53:00Z
1656254505
Winds: 260 @ 9 kts
Visibility: 10.0 sm
Clouds (AGL): CLR
Temperature: 16.1 C
Dew Point: 6.1 C
Pressure: 30.171259 in Hgbr


Notes:

Data extracted from FAA Digital Chart Supplement. Effective: 0901Z Thursday, 27 JAN 2022 to 0900z Thursday, 24 MAR 2022
Current ATIS data is provided courtisy of PilotEdge.